Location: Kawakawa
(35.3830°S, 174.0670°E)
Time: 10:19:54
(UTC+13:00)

Explorer 7 - Pass Details

Date: 20 December 2019
Orbit: 485 x 679 km, 50.3° (Epoch: 18 January)

Event Time Altitude Azimuth Distance (km) Brightness Sun altitude
Rises 01:59:25 0° 291° (WNW) 2,739 - -30.5°
Reaches altitude 10° 02:01:50 10° 283° (WNW) 1,815 - -30.4°
Maximum altitude 02:05:40 38° 214° (SW) 824 - -30.2°
Exits shadow 02:07:19 26° 165° (SSE) 1,065 8.9 -30.2°
Drops below altitude 10° 02:09:22 10° 144° (SE) 1,740 10.1 -30.1°
Sets 02:11:39 0° 136° (SE) 2,610 11.1 -30.0°
